Location: Heidgraben
(53.7081°N, 9.6576°E)
Time: 04:38:15
(UTC+00:00)

Cosmos 1420 Rocket - Pass Details

Date: 05 July 2020
Orbit: 754 x 781 km, 74.0° (Epoch: 06 August)

Event Time Altitude Azimuth Distance (km) Brightness Sun altitude
Rises 22:49:11 0° 332° (NNW) 3,250 8.7 -13.2°
Reaches altitude 10° 22:51:34 10° 330° (NNW) 2,323 7.7 -13.3°
Maximum altitude 22:56:49 72° 247° (WSW) 816 4.1 -13.4°
Enters shadow 23:00:34 20° 167° (SSE) 1,758 5.2 -13.4°
